Home   Weather   Columbus   Past weeks

Flag for USA Past Weather in Columbus, Ohio, USA — Yesterday and Last 2 Weeks

Now
30 °F

Mostly cloudy.


Feels Like: 21 °F
Forecast: 21 / 31 °F
Wind: 10 mph from West

Location: John Glenn Columbus International Airport

Current Time: Dec 8, 2016 at 4:59:00 am

Latest Report: Dec 8, 2016 at 3:51 am


Visibility: 10 mi

Pressure: 30.13 "Hg

Humidity: 79%

Dew Point: 24 °F

Location of ColumbusLocation

Past Weather in Columbus — Graph

°F

Columbus Temperature Yesterday

Maximum temperature yesterday: 37 °F (at 1:51 pm)
Minimum temperature yesterday: 29 °F (at 6:51 am)
Average temperature yesterday: 34 °F

High & Low Weather Summary for the Past Weeks

 TemperatureHumidityPressure
High61 °F (Nov 30, 2:51 pm)100% (Nov 24, 2:51 am)30.37 "Hg (Nov 24, 2:51 am)
Low28 °F (Nov 27, 5:51 am)41% (Nov 28, 11:51 am)29.52 "Hg (Nov 29, 12:51 am)
Average41 °F79%30.05 "Hg
* Reported Nov 23 3:51 am — Dec 8 3:51 am, Columbus, Weather by CustomWeather, © 2016

Note: Actual official high and low records may vary slightly from our data, if they occured in-between our weather recording intervals... More about our weather records

Advertising

Columbus Weather History for the Previous 24 Hours

Scroll right to see more
 ConditionsComfort  
Time TempWeatherWind HumidityBarometerVisibility
3:51 am
Thu, Dec 8
30 °FMostly cloudy.10 mph79%30.13 "Hg10 mi
2:51 am31 °FMostly cloudy.9 mph76%30.14 "Hg10 mi
1:51 am31 °FMostly cloudy.15 mph73%30.14 "Hg10 mi
12:51 am33 °FOvercast.12 mph72%30.12 "Hg10 mi
11:51 pm
Wed, Dec 7
33 °FOvercast.10 mph72%30.13 "Hg10 mi
10:51 pm34 °FOvercast.8 mph70%30.14 "Hg10 mi
9:51 pm34 °FOvercast.10 mph70%30.14 "Hg10 mi
8:51 pm35 °FOvercast.9 mph70%30.13 "Hg10 mi
7:51 pm35 °FOvercast.8 mph67%30.13 "Hg10 mi
6:51 pm36 °FOvercast.6 mph64%30.13 "Hg10 mi
5:51 pm36 °FOvercast.5 mph64%30.13 "Hg10 mi
4:51 pm36 °FPartly sunny.8 mph64%30.12 "Hg10 mi
3:51 pm36 °FOvercast.8 mph64%30.13 "Hg10 mi
2:51 pm37 °FOvercast.9 mph57%30.12 "Hg10 mi
1:51 pm37 °FBroken clouds.10 mph57%30.12 "Hg10 mi
12:51 pm36 °FScattered clouds.9 mph57%30.13 "Hg10 mi
11:51 am36 °FPassing clouds.7 mph62%30.15 "Hg10 mi
10:51 am34 °FPassing clouds.9 mph67%30.18 "Hg10 mi
9:51 am32 °FPassing clouds.8 mph75%30.16 "Hg10 mi
8:51 am29 °FBroken clouds.6 mph93%30.14 "Hg9 mi
7:51 am29 °FPartly sunny.6 mph89%30.12 "Hg10 mi
6:51 am29 °FPassing clouds.8 mph89%30.11 "Hg10 mi
5:51 am30 °FPassing clouds.7 mph89%30.09 "Hg10 mi
4:51 am30 °FPassing clouds.7 mph92%30.07 "Hg10 mi
Weather by CustomWeather, © 2016

See weather overviewHow to use our weather pages